TIMED

Last updated on July 6, 2021, 3:27 p.m. UTC

1 26998U 01055B   21186.89532843  .00000101  00000-0  14984-4 0  9997
2 26998  74.0719 249.8064 0002239 256.8817 103.2114 14.88320248 61447
UTC
Height (km)
Latitude
Longitude
Inclination
Orbital Period
UTC large
Height (km)
Speed (km/s)
/
Latitude / Longitude
Inclination (degrees)
Orbital Period (minutes)
Azimuth
Elevation
Range (km)
Doppler Factor
iOS Compass Heading
iOS Angle